FENGYUN 1C DEB

Satellite information

Favourite Embed

Satellite Type and Status

DEBRISIN ORBIT

Key statistics

Satellite FENGYUN 1C DEB at a glance.

Uptime

9555

Days in orbit

Revolutions

≈ 14.4

Per day

Orbit

SSO

Sun Synchronous Orbit

Inclination

100.4

Latest

Satellite identification and parameters

Extended collection of information and parameters for FENGYUN 1C DEB.

Object identification

Identified? True

Debris? True

Object name: FENGYUN 1C DEB

International designator: 1999-025CXM

Object number (NORAD): 32320

Object ID (CCSDS): 32320

Country: PEOPLES REPUBLIC OF CHINA (PRC)

Current information (Y/N): Y

RCS size: SMALL

Orbital parameters

Period: 100.337 minutes

Inclination: 100.3866 deg

SMA: 7152.683 km

Apoapsis: 815.474 km

Periapsis: 733.622 km

RAAN: 7.5802 deg

Eccentricy: 0.0057218

Argument of periapsis: 144.3064 deg

Mean anomaly: 216.1961 deg

Mean motion: 14.35156671 rev/day

Mean motion (dot): 0.00001987 rev/day2

B* drag term: 0.00070317 1/REarth

Two-line elements (TLE)

Creation date: July 2, 2025, 5:47 p.m.

Reference frame: TEME

Reference center: EARTH

Epoch: July 2, 2025, 10:48 a.m. UTC

TLE line 0: 0 FENGYUN 1C DEB

TLE line 1: 1 32320U 99025CXM 25183.45066662 .00001987 00000-0 70317-3 0 9995

TLE line 2: 2 32320 100.3866 7.5802 0057218 144.3064 216.1961 14.35156671598303

Live tracking on map

Real-time ground track for satellite FENGYUN 1C DEB.

In-orbit conjunctions

A list of the most updated potential collisions computed for object FENGYUN 1C DEB.

Target Orbit TCA Probability of collision Miss distance Type
ARIANE 1 DEB SSO 2025-05-15 22:17:51 0.0001387668 224.0 (m) DEBRIS
CZ-6A DEB LEO 2024-11-26 08:23:39 0.0001802533 353.0 (m) DEBRIS
TRIAD 1 LEO 2024-08-30 19:04:44 0.000148467 875.0 (m) PAYLOAD

Associated space launch

Chinese polar orbiting meteorological satellite

FENGYUN 1C DEB was lifted into orbit during the mission ‘Long March 4B | Feng Yun 1C’, on board a Long March 4B space rocket.

The launch took place on May 10, 1999, 1:33 a.m. from Launch Complex 7.

For more information about the launch, click the button.

Launch to space Long March 4B | Feng Yun 1C
Long March 4B | Feng Yun 1C

Agency: N/A

Status: Launch Successful

Launch date: May 10, 1999, 1:33 a.m. UTC

Rocket: Long March 4B

Launch pad: Launch Complex 7

Location: Taiyuan Satellite Launch Center, People's Republic of China

...

Latest news about this satellite

There are no fresh news available about this satellite. Check back as we update our databases every day.


Newsletter sign-up

Weekly statistics, charts and insights to help you stay on top of the space industry.